Powrót do katalogu

STARLINK-36773

AktywnyŁącznośćSSO
NORAD 67801·PAYLOAD·🇺🇸 United States

Wystrzelony Feb 15, 2026 z Vandenberg Space Force Base

Loading…

Następne Przeloty (najbliższe 24 godziny)

TLE

ŚwieżeSource: CelesTrak SupGP

Epoka: Sep 14, 2026, 23:08 UTC

1 67801C 26032E   26257.96437500  .00063688  00000+0  19766-2 0  2579
2 67801  97.2852  84.3798 0001849  96.4943 220.4887 15.33412771    19

Śledź STARLINK-36773 w czasie rzeczywistym z AllMySat

Download on the App Store